Location: Marstown
(39.5056°N, 77.0820°W)
Time: 19:41:55
(UTC-05:00)

Hubble Space Telescope - Visible Passes

Search period start: 20 January 2018 00:00
Search period end: 30 January 2018 00:00
Orbit: 537 x 541 km, 28.5° (Epoch: 20 January)

Date Brightness Start Highest point End Pass type
(mag) Time Alt. Az. Time Alt. Az. Time Alt. Az.
23 Jan 3.2 18:57:21 10° S 18:58:21 11° SSE 18:58:58 10° SSE visible
24 Jan 3.1 18:46:13 10° SSW 18:47:58 12° SSE 18:49:22 11° SE visible
25 Jan 3.1 18:35:25 10° SSW 18:37:35 14° SSE 18:39:45 10° SE visible
26 Jan 3.1 18:24:46 10° SSW 18:27:12 15° S 18:29:38 10° SE visible
26 Jan 3.6 20:05:01 10° SW 20:05:31 12° SW 20:05:31 12° SW visible
27 Jan 3.0 18:14:13 10° SSW 18:16:49 16° S 18:19:26 10° SE visible
27 Jan 3.4 19:54:46 10° SW 19:55:55 14° SSW 19:55:55 14° SSW visible
28 Jan 3.0 18:03:44 10° SW 18:06:27 17° S 18:09:10 10° SE visible
28 Jan 3.2 19:44:34 10° SW 19:46:21 15° SSW 19:46:21 15° SSW visible
29 Jan 3.1 17:53:18 10° SW 17:56:06 17° S 17:58:51 10° SE visible
29 Jan 3.2 19:34:27 10° SW 19:36:37 14° SSW 19:36:50 14° S visible
